Location: Buchloe
(48.0161°N, 10.7316°E)
Time: 06:13:15
(UTC+01:00)

ISS - Pass Details

Date: 07 December 2021
Orbit: 413 x 423 km, 51.6° (Epoch: 18 January)

Event Time Altitude Azimuth Distance (km) Brightness Sun altitude
Rises 18:42:46 0° 283° (WNW) 2,379 1.2 -22.2°
Reaches altitude 10° 18:45:49 10° 253° (WSW) 1,506 0.2 -22.7°
Maximum altitude 18:47:20 13° 226° (SW) 1,356 -0.5 -23.0°
Drops below altitude 10° 18:48:51 10° 199° (SSW) 1,498 -0.6 -23.2°
Enters shadow 18:50:22 - 180° (S) 1,869 -0.4 -23.5°
